Weather History for Tekamah, NE

Change the Weather History Date:

Monday, December 2, 2013

  Actual Average Record
Temperature  
Mean Temperature 41 °F -  
Max Temperature 57 °F 38 °F 63 °F (1956)
Min Temperature 25 °F 20 °F -2 °F (1985)
Degree Days  
Heating Degree Days 24    
Moisture  
Dew Point 27 °F    
Average Humidity 67    
Maximum Humidity 85    
Minimum Humidity 37    
Precipitation  
Precipitation 0.00 in - - ()
Sea Level Pressure  
Sea Level Pressure 29.62 in    
Wind  
Wind Speed 6 mph (South)    
Max Wind Speed 12 mph    
Max Gust Speed -    
Visibility 9 miles    
Events      
Averages and records for this station are not official NWS values.
T = Trace of Precipitation, MM = Missing Value Source: NWS Daily Summary

Daily Weather History Graph

Daily Weather History Graph

Search for Another Location

Airport:

Trip Planner

Search our weather history database for the weather conditions in past years. The results will help you decide how hot, cold, wet, or windy it might be!

Date:

Astronomy

Dec. 02, 2013 Rise Set
Actual Time 7:33 AM CST 4:54 PM CST
Civil Twilight 7:02 AM CST 5:25 PM CST
Nautical Twilight 6:28 AM CST 6:00 PM CST
Astronomical Twilight 5:54 AM CST 6:33 PM CST
Moon 6:59 AM CST (12/2) 4:59 PM CST (12/2)
Length of Visible Light 10h 22m
Length of Day
9h 20m
Waning Crescent, 0% of the Moon is Illuminated
Dec 2
Waning Crescent
Dec 2
New
Dec 9
First Quarter
Dec 17
Full
Dec 25
Last Quarter

Hourly Weather History & Observations

Time (CST) Temp. Windchill Dew Point Humidity Pressure Visibility Wind Dir Wind Speed Gust Speed Precip Events Conditions
12:54 AM 28.9 °F 22.8 °F 23.0 °F 78% 29.85 in 8.0 mi SSE 5.8 mph - N/A   Clear
1:54 AM 26.1 °F 18.4 °F 21.0 °F 81% 29.83 in 8.0 mi South 6.9 mph - N/A   Clear
2:54 AM 28.0 °F 21.7 °F 23.0 °F 81% 29.80 in 7.0 mi SE 5.8 mph - N/A   Clear
3:54 AM 25.0 °F 17.1 °F 21.0 °F 85% 29.76 in 7.0 mi SSE 6.9 mph - N/A   Clear
4:54 AM 30.0 °F 22.4 °F 24.1 °F 79% 29.72 in 7.0 mi SSE 8.1 mph - N/A   Clear
5:54 AM 32.0 °F 24.2 °F 27.0 °F 82% 29.69 in 8.0 mi SSE 9.2 mph - N/A   Partly Cloudy
6:54 AM 32.0 °F 25.6 °F 27.0 °F 82% 29.67 in 8.0 mi SSE 6.9 mph - N/A   Clear
7:54 AM 27.0 °F 20.5 °F 23.0 °F 85% 29.65 in 5.0 mi South 5.8 mph - N/A   Partly Cloudy
8:54 AM 34.0 °F 31.0 °F 28.0 °F 79% 29.66 in 6.0 mi SW 3.5 mph - N/A   Haze
9:54 AM 39.9 °F 32.9 °F 32.0 °F 73% 29.61 in 7.0 mi SE 11.5 mph - N/A   Clear
10:54 AM 46.0 °F 41.4 °F 33.1 °F 61% 29.61 in 10.0 mi SSW 9.2 mph - N/A   Clear
11:54 AM 48.9 °F - 32.0 °F 52% 29.58 in 10.0 mi SSW 6.9 mph - N/A   Clear
12:54 PM 53.1 °F - 32.0 °F 45% 29.57 in 10.0 mi West 5.8 mph - N/A   Clear
1:54 PM 55.9 °F - 32.0 °F 40% 29.55 in 10.0 mi Variable 5.8 mph - N/A   Clear
2:54 PM 57.9 °F - 32.0 °F 37% 29.52 in 10.0 mi South 5.8 mph - N/A   Clear
3:54 PM 54.0 °F - 32.0 °F 43% 29.53 in 10.0 mi SE 8.1 mph - N/A   Clear
4:54 PM 46.9 °F - 30.0 °F 52% 29.52 in 10.0 mi ESE 6.9 mph - N/A   Clear
5:54 PM 43.0 °F 40.3 °F 28.9 °F 58% 29.55 in 10.0 mi South 4.6 mph - N/A   Clear
6:54 PM 37.9 °F 35.5 °F 25.0 °F 60% 29.56 in 9.0 mi SSE 3.5 mph - N/A   Clear
7:54 PM 37.9 °F - 26.1 °F 62% 29.55 in 10.0 mi Calm Calm - N/A   Overcast
8:54 PM 34.0 °F 31.0 °F 26.1 °F 73% 29.55 in 10.0 mi WSW 3.5 mph - N/A   Clear
9:54 PM 30.0 °F 25.2 °F 23.0 °F 75% 29.54 in 10.0 mi North 4.6 mph - N/A   Clear
10:54 PM 28.9 °F 25.2 °F 23.0 °F 78% 29.54 in 10.0 mi WSW 3.5 mph - N/A   Clear
11:54 PM 30.0 °F - 23.0 °F 75% 29.53 in 10.0 mi Calm Calm - N/A   Clear